FIN1KA EFHK-ESSA

Flight info

Callsign FIN1KA
Flight time 0h 52m
Altitude 30000
Route ADIVO Y365 POGOK DCT RUNGA N872 XILAN
Aircraft A320/M-SDE3FGHIRWY/LB1

Departure

Time 2026-04-25 22:32
Airport Helsinki Vantaa Airport (EFHK)

Arrival

Time 2026-04-25 23:24
Airport Stockholm-Arlanda Airport (ESSA)
Time Latitude Longitude Altitude Speed Heading
2026-04-25 21:59 60.31823 24.97040 162 ft 0 kts 243°
2026-04-25 22:24 60.31827 24.97054 161 ft 2 kts 243°
2026-04-25 22:24 60.31834 24.97083 161 ft 2 kts 243°
2026-04-25 22:24 60.31843 24.97110 161 ft 3 kts 218°
2026-04-25 22:24 60.31858 24.97130 161 ft 3 kts 195°
2026-04-25 22:25 60.31875 24.97135 161 ft 3 kts 167°
2026-04-25 22:25 60.31885 24.97130 161 ft 0 kts 146°
2026-04-25 22:26 60.31883 24.97132 161 ft 2 kts 146°
2026-04-25 22:27 60.31850 24.97171 161 ft 9 kts 151°
2026-04-25 22:27 60.31775 24.97249 161 ft 15 kts 154°
2026-04-25 22:27 60.31668 24.97361 161 ft 17 kts 153°
2026-04-25 22:27 60.31564 24.97466 161 ft 16 kts 153°
2026-04-25 22:28 60.31470 24.97570 161 ft 15 kts 153°
2026-04-25 22:28 60.31388 24.97672 161 ft 13 kts 126°
2026-04-25 22:28 60.31363 24.97824 161 ft 11 kts 135°
2026-04-25 22:28 60.31275 24.97922 161 ft 19 kts 153°
2026-04-25 22:29 60.31134 24.98058 161 ft 26 kts 149°
2026-04-25 22:29 60.30983 24.98208 161 ft 21 kts 155°
2026-04-25 22:29 60.30857 24.98321 161 ft 18 kts 157°
2026-04-25 22:30 60.30671 24.98518 161 ft 13 kts 118°
2026-04-25 22:30 60.30683 24.98695 160 ft 14 kts 55°
2026-04-25 22:30 60.30772 24.98763 158 ft 15 kts 336°
2026-04-25 22:30 60.30792 24.98742 158 ft 0 kts 332°
2026-04-25 22:31 60.30795 24.98739 158 ft 3 kts 332°
2026-04-25 22:31 60.30980 24.98542 156 ft 70 kts 336°
2026-04-25 22:31 60.31627 24.97867 155 ft 136 kts 330°
2026-04-25 22:31 60.32542 24.96916 578 ft 152 kts 333°
2026-04-25 22:32 60.33509 24.96008 1275 ft 154 kts 335°
2026-04-25 22:32 60.34409 24.94900 2150 ft 153 kts 324°
2026-04-25 22:32 60.35195 24.93224 2509 ft 179 kts 309°
2026-04-25 22:32 60.35788 24.90811 2990 ft 204 kts 292°
2026-04-25 22:33 60.35999 24.87872 3602 ft 227 kts 274°
2026-04-25 22:33 60.35657 24.84596 4263 ft 252 kts 252°
2026-04-25 22:33 60.34678 24.81483 4944 ft 273 kts 237°
2026-04-25 22:33 60.33513 24.78408 5885 ft 276 kts 237°
2026-04-25 22:34 60.32342 24.75326 6845 ft 278 kts 237°
2026-04-25 22:34 60.31577 24.73249 7490 ft 278 kts 242°
2026-04-25 22:34 60.30651 24.69847 8446 ft 277 kts 248°
2026-04-25 22:34 60.29946 24.66255 9379 ft 275 kts 261°
2026-04-25 22:35 60.29718 24.62458 10225 ft 273 kts 274°
2026-04-25 22:35 60.29741 24.57193 10903 ft 294 kts 274°
2026-04-25 22:35 60.29763 24.52953 11401 ft 310 kts 274°
2026-04-25 22:35 60.29778 24.48569 12131 ft 316 kts 274°
2026-04-25 22:36 60.29783 24.45623 12680 ft 318 kts 274°
2026-04-25 22:36 60.29784 24.41145 13492 ft 321 kts 273°
2026-04-25 22:36 60.29783 24.36634 14236 ft 323 kts 273°
2026-04-25 22:36 60.29783 24.32087 14978 ft 326 kts 273°
2026-04-25 22:37 60.29783 24.27504 15725 ft 328 kts 273°
2026-04-25 22:37 60.29783 24.21388 16705 ft 331 kts 273°
2026-04-25 22:37 60.29782 24.18249 17201 ft 332 kts 273°
2026-04-25 22:37 60.29776 24.12040 18111 ft 336 kts 272°
2026-04-25 22:38 60.29772 24.08915 18505 ft 338 kts 272°
2026-04-25 22:38 60.29764 24.04162 19103 ft 341 kts 272°
2026-04-25 22:38 60.29735 23.99362 19700 ft 345 kts 269°
2026-04-25 22:38 60.29368 23.94539 20300 ft 351 kts 261°
2026-04-25 22:39 60.28843 23.89721 20884 ft 354 kts 261°
2026-04-25 22:39 60.28314 23.84840 21468 ft 358 kts 261°
2026-04-25 22:39 60.27781 23.79922 22040 ft 361 kts 261°
2026-04-25 22:39 60.27249 23.75022 22620 ft 365 kts 261°
2026-04-25 22:40 60.26704 23.70009 23170 ft 368 kts 261°
2026-04-25 22:40 60.26151 23.64956 23621 ft 371 kts 261°
2026-04-25 22:40 60.25590 23.59861 24087 ft 374 kts 260°
2026-04-25 22:40 60.25024 23.54729 24547 ft 377 kts 260°
2026-04-25 22:41 60.24451 23.49575 24989 ft 379 kts 260°
2026-04-25 22:41 60.23871 23.44371 25418 ft 382 kts 260°
2026-04-25 22:41 60.23287 23.39142 25852 ft 384 kts 260°
2026-04-25 22:41 60.22695 23.33870 26273 ft 387 kts 260°
2026-04-25 22:42 60.22096 23.28572 26676 ft 390 kts 259°
2026-04-25 22:42 60.21498 23.23315 27072 ft 392 kts 259°
2026-04-25 22:42 60.20888 23.17955 27478 ft 394 kts 259°
2026-04-25 22:42 60.20275 23.12565 27864 ft 397 kts 259°
2026-04-25 22:43 60.19654 23.07135 28253 ft 400 kts 259°
2026-04-25 22:43 60.19025 23.01669 28615 ft 402 kts 259°
2026-04-25 22:43 60.18391 22.96186 28991 ft 404 kts 259°
2026-04-25 22:43 60.17749 22.90666 29351 ft 407 kts 259°
2026-04-25 22:44 60.17111 22.85195 29588 ft 409 kts 259°
2026-04-25 22:44 60.16471 22.79735 29618 ft 393 kts 259°
2026-04-25 22:44 60.15854 22.74522 29626 ft 376 kts 259°
2026-04-25 22:44 60.15250 22.69426 29625 ft 375 kts 259°
2026-04-25 22:45 60.14044 22.59254 29630 ft 374 kts 259°
2026-04-25 22:45 60.12846 22.49091 29642 ft 374 kts 259°
2026-04-25 22:46 60.11639 22.39004 29644 ft 374 kts 259°
2026-04-25 22:46 60.10410 22.28849 29649 ft 375 kts 259°
2026-04-25 22:47 60.09169 22.18715 29646 ft 374 kts 259°
2026-04-25 22:47 60.07931 22.08662 29650 ft 374 kts 259°
2026-04-25 22:48 60.06681 21.98550 29643 ft 374 kts 259°
2026-04-25 22:48 60.05424 21.88450 29656 ft 374 kts 259°
2026-04-25 22:49 60.04155 21.78360 29650 ft 374 kts 259°
2026-04-25 22:49 60.02891 21.68330 29662 ft 374 kts 259°
2026-04-25 22:50 60.01615 21.58251 29664 ft 374 kts 258°
2026-04-25 22:50 60.00326 21.48175 29674 ft 374 kts 258°
2026-04-25 22:51 59.99027 21.38108 29669 ft 374 kts 258°
2026-04-25 22:51 59.97667 21.28084 29684 ft 374 kts 257°
2026-04-25 22:52 59.96261 21.18141 29686 ft 374 kts 257°
2026-04-25 22:52 59.94844 21.08140 29708 ft 375 kts 257°
2026-04-25 22:53 59.93439 20.98140 29706 ft 374 kts 257°
2026-04-25 22:53 59.92036 20.88227 29396 ft 366 kts 257°
2026-04-25 22:54 59.91354 20.83440 29114 ft 363 kts 257°
2026-04-25 22:54 59.90663 20.78625 28813 ft 361 kts 257°
2026-04-25 22:54 59.89977 20.73828 28534 ft 359 kts 257°
2026-04-25 22:54 59.89293 20.69061 28255 ft 357 kts 257°
2026-04-25 22:55 59.88613 20.64327 27983 ft 356 kts 257°
2026-04-25 22:55 59.87930 20.59601 27694 ft 353 kts 257°
2026-04-25 22:55 59.87249 20.54909 27426 ft 352 kts 257°
2026-04-25 22:55 59.86570 20.50244 27156 ft 350 kts 257°
2026-04-25 22:56 59.85904 20.45671 26899 ft 348 kts 257°
2026-04-25 22:56 59.85231 20.41058 26624 ft 346 kts 257°
2026-04-25 22:56 59.84556 20.36464 26363 ft 345 kts 257°
2026-04-25 22:56 59.83883 20.31898 26107 ft 343 kts 257°
2026-04-25 22:57 59.83214 20.27351 25851 ft 342 kts 258°
2026-04-25 22:57 59.82547 20.22828 25585 ft 340 kts 257°
2026-04-25 22:57 59.81882 20.18334 25334 ft 337 kts 258°
2026-04-25 22:57 59.81234 20.13967 25009 ft 331 kts 258°
2026-04-25 22:58 59.80582 20.09605 24615 ft 328 kts 258°
2026-04-25 22:58 59.79932 20.05277 24192 ft 325 kts 258°
2026-04-25 22:58 59.79289 20.01003 23788 ft 322 kts 258°
2026-04-25 22:58 59.78648 19.96752 23371 ft 320 kts 258°
2026-04-25 22:59 59.78012 19.92532 22905 ft 318 kts 258°
2026-04-25 22:59 59.77383 19.88365 22501 ft 313 kts 258°
2026-04-25 22:59 59.76759 19.84251 22108 ft 309 kts 258°
2026-04-25 22:59 59.76149 19.80236 21730 ft 306 kts 257°
2026-04-25 23:00 59.75536 19.76207 21318 ft 304 kts 257°
2026-04-25 23:00 59.74927 19.72213 20896 ft 302 kts 258°
2026-04-25 23:00 59.74351 19.68240 20533 ft 298 kts 258°
2026-04-25 23:00 59.73811 19.64291 20151 ft 296 kts 259°
2026-04-25 23:01 59.73284 19.60365 19767 ft 294 kts 259°
2026-04-25 23:01 59.72761 19.56470 19398 ft 292 kts 259°
2026-04-25 23:01 59.72235 19.52593 19023 ft 291 kts 258°
2026-04-25 23:01 59.71711 19.48779 18655 ft 290 kts 258°
2026-04-25 23:02 59.71178 19.44935 18284 ft 289 kts 258°
2026-04-25 23:02 59.70647 19.41108 17905 ft 288 kts 258°
2026-04-25 23:02 59.70116 19.37303 17519 ft 286 kts 258°
2026-04-25 23:02 59.69588 19.33528 17168 ft 283 kts 258°
2026-04-25 23:03 59.69065 19.29793 16819 ft 280 kts 258°
2026-04-25 23:03 59.68546 19.26086 16486 ft 278 kts 258°
2026-04-25 23:03 59.68028 19.22409 16143 ft 277 kts 258°
2026-04-25 23:03 59.67518 19.18806 15813 ft 275 kts 258°
2026-04-25 23:04 59.67002 19.15175 15481 ft 273 kts 257°
2026-04-25 23:04 59.66489 19.11563 15159 ft 272 kts 258°
2026-04-25 23:04 59.65977 19.07965 14831 ft 271 kts 257°
2026-04-25 23:04 59.65458 19.04309 14429 ft 283 kts 257°
2026-04-25 23:05 59.64923 19.00551 13994 ft 285 kts 257°
2026-04-25 23:05 59.64384 18.96780 13569 ft 286 kts 257°
2026-04-25 23:05 59.63841 18.92988 13108 ft 287 kts 257°
2026-04-25 23:05 59.63304 18.89258 12753 ft 284 kts 257°
2026-04-25 23:06 59.62766 18.85542 12360 ft 282 kts 257°
2026-04-25 23:06 59.62228 18.81832 11971 ft 277 kts 257°
2026-04-25 23:06 59.61700 18.78206 11452 ft 273 kts 257°
2026-04-25 23:06 59.61177 18.74599 11030 ft 273 kts 257°
2026-04-25 23:07 59.60656 18.71006 10618 ft 272 kts 257°
2026-04-25 23:07 59.60133 18.67411 10215 ft 272 kts 257°
2026-04-25 23:07 59.59612 18.63821 9818 ft 272 kts 257°
2026-04-25 23:07 59.59089 18.60224 9379 ft 272 kts 257°
2026-04-25 23:08 59.58572 18.56689 8964 ft 271 kts 257°
2026-04-25 23:08 59.58050 18.53134 8560 ft 269 kts 257°
2026-04-25 23:08 59.57527 18.49589 8166 ft 268 kts 256°
2026-04-25 23:08 59.57009 18.46082 7774 ft 266 kts 256°
2026-04-25 23:09 59.56490 18.42591 7373 ft 264 kts 256°
2026-04-25 23:09 59.55976 18.39124 6984 ft 262 kts 256°
2026-04-25 23:09 59.55465 18.35687 6601 ft 261 kts 256°
2026-04-25 23:09 59.54951 18.32259 6209 ft 260 kts 256°
2026-04-25 23:10 59.54445 18.28904 5808 ft 258 kts 256°
2026-04-25 23:10 59.53936 18.25516 5420 ft 257 kts 256°
2026-04-25 23:10 59.53430 18.22143 5036 ft 256 kts 256°
2026-04-25 23:10 59.53013 18.18750 4645 ft 254 kts 262°
2026-04-25 23:11 59.52710 18.15341 4365 ft 254 kts 262°
2026-04-25 23:11 59.52399 18.11920 3999 ft 253 kts 262°
2026-04-25 23:11 59.52086 18.08511 3597 ft 253 kts 263°
2026-04-25 23:11 59.51774 18.05127 3329 ft 246 kts 263°
2026-04-25 23:12 59.51477 18.01966 3258 ft 231 kts 263°
2026-04-25 23:12 59.51196 17.98945 3175 ft 218 kts 265°
2026-04-25 23:12 59.51174 17.96088 3080 ft 202 kts 283°
2026-04-25 23:12 59.51569 17.93539 2982 ft 188 kts 299°
2026-04-25 23:13 59.52261 17.91496 2945 ft 171 kts 314°
2026-04-25 23:13 59.53106 17.90040 2901 ft 154 kts 328°
2026-04-25 23:13 59.54004 17.89125 2882 ft 143 kts 339°
2026-04-25 23:13 59.54962 17.88635 2854 ft 143 kts 351°
2026-04-25 23:14 59.55938 17.88566 2820 ft 142 kts
2026-04-25 23:14 59.56915 17.88879 2788 ft 142 kts
2026-04-25 23:14 59.57731 17.89948 2733 ft 147 kts 51°
2026-04-25 23:14 59.57951 17.91880 2725 ft 147 kts 86°
2026-04-25 23:15 59.57724 17.93877 2676 ft 155 kts 118°
2026-04-25 23:15 59.56971 17.95462 2594 ft 160 kts 136°
2026-04-25 23:15 59.56125 17.96889 2521 ft 160 kts 131°
2026-04-25 23:15 59.55389 17.98513 2504 ft 158 kts 125°
2026-04-25 23:16 59.54696 18.00199 2507 ft 158 kts 125°
2026-04-25 23:16 59.53809 18.01423 2495 ft 162 kts 160°
2026-04-25 23:16 59.52732 18.02109 2514 ft 163 kts 164°
2026-04-25 23:16 59.51644 18.02725 2506 ft 163 kts 165°
2026-04-25 23:17 59.50556 18.03328 2504 ft 162 kts 165°
2026-04-25 23:17 59.49451 18.03566 2448 ft 158 kts 201°
2026-04-25 23:17 59.48647 18.02326 2488 ft 143 kts 253°
2026-04-25 23:17 59.48326 18.00515 2518 ft 140 kts 259°
2026-04-25 23:18 59.47958 17.98753 2510 ft 142 kts 255°
2026-04-25 23:18 59.47547 17.96980 2510 ft 142 kts 254°
2026-04-25 23:18 59.47107 17.95230 2505 ft 144 kts 250°
2026-04-25 23:18 59.46605 17.93513 2502 ft 145 kts 248°
2026-04-25 23:19 59.46389 17.91721 2468 ft 132 kts 293°
2026-04-25 23:19 59.46969 17.90318 2504 ft 139 kts 331°
2026-04-25 23:19 59.47861 17.89566 2507 ft 140 kts 343°
2026-04-25 23:19 59.48814 17.89131 2506 ft 141 kts 348°
2026-04-25 23:20 59.49774 17.88730 2503 ft 141 kts 348°
2026-04-25 23:20 59.50731 17.88330 2506 ft 141 kts 348°
2026-04-25 23:20 59.51674 17.87929 2503 ft 140 kts 347°
2026-04-25 23:20 59.52630 17.87525 2490 ft 141 kts 349°
2026-04-25 23:21 59.53593 17.87755 2291 ft 141 kts 12°
2026-04-25 23:21 59.54545 17.88080 2100 ft 139 kts
2026-04-25 23:21 59.55480 17.88385 1913 ft 129 kts
2026-04-25 23:21 59.56308 17.88671 1753 ft 114 kts
2026-04-25 23:22 59.57072 17.88937 1592 ft 111 kts
2026-04-25 23:22 59.57847 17.89210 1423 ft 115 kts
2026-04-25 23:22 59.58629 17.89488 1270 ft 118 kts
2026-04-25 23:23 59.60243 17.90065 877 ft 123 kts
2026-04-25 23:23 59.61099 17.90371 689 ft 127 kts
2026-04-25 23:23 59.61974 17.90688 498 ft 129 kts
2026-04-25 23:23 59.62860 17.91008 317 ft 130 kts
2026-04-25 23:24 59.63755 17.91316 149 ft 130 kts
2026-04-25 23:24 59.64619 17.91614 117 ft 108 kts 18°
2026-04-25 23:24 59.65163 17.91838 117 ft 58 kts
2026-04-25 23:24 59.65526 17.91970 119 ft 47 kts 13°
2026-04-25 23:25 59.65741 17.92168 120 ft 14 kts 37°
2026-04-25 23:25 59.65745 17.92174 120 ft 0 kts 37°
2026-04-25 23:25 59.65748 17.92178 118 ft 3 kts 37°
2026-04-25 23:25 59.65780 17.92226 119 ft 9 kts 38°
2026-04-25 23:26 59.65795 17.92368 121 ft 15 kts 122°
2026-04-25 23:26 59.65681 17.92393 121 ft 21 kts 189°
2026-04-25 23:26 59.65517 17.92334 120 ft 26 kts 190°
2026-04-25 23:26 59.65337 17.92272 115 ft 27 kts 189°
2026-04-25 23:27 59.65141 17.92200 118 ft 30 kts 189°
2026-04-25 23:27 59.64935 17.92119 114 ft 31 kts 185°
2026-04-25 23:27 59.64740 17.92054 115 ft 26 kts 191°
2026-04-25 23:27 59.64557 17.91989 114 ft 26 kts 190°
2026-04-25 23:28 59.64424 17.91997 114 ft 17 kts 124°
2026-04-25 23:28 59.64363 17.92218 114 ft 20 kts 117°
2026-04-25 23:28 59.64322 17.92429 114 ft 11 kts 69°
2026-04-25 23:28 59.64377 17.92552 114 ft 12 kts 47°
2026-04-25 23:29 59.64420 17.92656 115 ft 5 kts 52°
2026-04-25 23:29 59.64425 17.92669 115 ft 0 kts 52°